Weather History for Cape Girardeau, MO

Change the Weather History Date:

Sunday, June 23, 2013

  Actual Average Record
Temperature  
Mean Temperature 80 °F 77 °F  
Max Temperature 91 °F 88 °F 103 °F (1988)
Min Temperature 68 °F 66 °F 52 °F (1972)
Degree Days  
Heating Degree Days 0 0  
Month to date heating degree days 0 1  
Since 1 June heating degree days 0 1  
Since 1 July heating degree days 4359 4387  
Cooling Degree Days 15 12  
Month to date cooling degree days 227 221  
Year to date cooling degree days 398 373  
Since 1 June cooling degree days 227 221  
Growing Degree Days 29 (Base 50)    
Moisture  
Dew Point 68 °F    
Average Humidity 71    
Maximum Humidity 90    
Minimum Humidity 52    
Precipitation  
Precipitation 0.04 in 0.12 in 1.85 in (1980)
Month to date precipitation 7.70 2.79  
Year to date precipitation 23.87 23.89  
Sea Level Pressure  
Sea Level Pressure 30.04 in    
Wind  
Wind Speed 6 mph (SSE)    
Max Wind Speed 26 mph    
Max Gust Speed 33 mph    
Visibility 10 miles    
Events Rain , Thunderstorm    
T = Trace of Precipitation, MM = Missing Value Source: NWS Daily Summary

Daily Weather History Graph

Daily Weather History Graph

Search for Another Location

Airport:

Trip Planner

Search our weather history database for the weather conditions in past years. The results will help you decide how hot, cold, wet, or windy it might be!

Date:

Astronomy

Jun. 23, 2013 Rise Set
Actual Time 5:38 AM CDT 8:22 PM CDT
Civil Twilight 5:07 AM CDT 8:53 PM CDT
Nautical Twilight 4:29 AM CDT 9:32 PM CDT
Astronomical Twilight 3:45 AM CDT 10:15 PM CDT
Moon 8:36 PM CDT 5:54 AM CDT
Length of Visible Light 15h 45m
Length of Day
14h 43m
Full, 100% of the Moon is Illuminated
Jun 23
Full
Jun 29
Last Quarter
Jul 8
New
Jul 15
First Quarter
Jul 22
Full

Hourly Weather History & Observations

Time (CDT) Temp. Heat Index Dew Point Humidity Pressure Visibility Wind Dir Wind Speed Gust Speed Precip Events Conditions
12:53 AM 72.0 °F - 63.0 °F 73% 29.97 in 10.0 mi SW 6.9 mph - N/A   Clear
1:53 AM 72.0 °F - 66.0 °F 81% 30.02 in 10.0 mi NE 3.5 mph - N/A   Clear
2:53 AM 69.1 °F - 66.0 °F 90% 30.02 in 10.0 mi Calm Calm - N/A   Clear
3:53 AM 70.0 °F - 66.9 °F 90% 30.04 in 10.0 mi Calm Calm - N/A   Overcast
4:53 AM 69.1 °F - 66.9 °F 93% 30.04 in 9.0 mi SE 3.5 mph - N/A   Overcast
5:53 AM 70.0 °F - 66.9 °F 90% 30.06 in 9.0 mi Calm Calm - N/A   Overcast
6:53 AM 71.1 °F - 68.0 °F 90% 30.07 in 10.0 mi Calm Calm - N/A   Mostly Cloudy
7:53 AM 73.0 °F - 68.0 °F 84% 30.08 in 10.0 mi SSE 6.9 mph - N/A   Overcast
8:53 AM 75.9 °F - 68.0 °F 76% 30.08 in 10.0 mi South 8.1 mph - N/A   Partly Cloudy
9:53 AM 80.1 °F 83.2 °F 70.0 °F 71% 30.07 in 10.0 mi South 9.2 mph 16.1 mph N/A   Clear
10:53 AM 82.9 °F 87.0 °F 70.0 °F 65% 30.07 in 10.0 mi SSW 9.2 mph - N/A   Clear
11:53 AM 86.0 °F 91.5 °F 71.1 °F 61% 30.06 in 10.0 mi SSW 8.1 mph 17.3 mph N/A   Partly Cloudy
12:53 PM 87.1 °F 92.8 °F 71.1 °F 59% 30.06 in 10.0 mi SW 8.1 mph - N/A   Scattered Clouds
1:53 PM 87.1 °F 92.8 °F 71.1 °F 59% 30.05 in 10.0 mi SW 9.2 mph - N/A   Mostly Cloudy
2:53 PM 89.1 °F 94.1 °F 70.0 °F 53% 30.03 in 10.0 mi SW 10.4 mph - N/A   Partly Cloudy
3:53 PM 88.0 °F 92.9 °F 70.0 °F 55% 30.01 in 10.0 mi South 6.9 mph - N/A   Clear
4:53 PM 84.0 °F 87.8 °F 69.1 °F 61% 30.00 in 10.0 mi ESE 10.4 mph - N/A   Mostly Cloudy
5:53 PM 87.1 °F 92.8 °F 71.1 °F 59% 29.97 in 10.0 mi SE 5.8 mph - N/A   Scattered Clouds
6:53 PM 84.9 °F 90.7 °F 72.0 °F 65% 30.00 in 10.0 mi East 5.8 mph - N/A   Scattered Clouds
7:53 PM 79.0 °F - 71.1 °F 77% 30.01 in 10.0 mi ESE 5.8 mph - N/A   Clear
8:53 PM 78.1 °F - 72.0 °F 81% 30.04 in 10.0 mi SSE 5.8 mph - N/A   Mostly Cloudy
9:41 PM 77.0 °F - 64.4 °F 65% 30.09 in 10.0 mi North 17.3 mph 33.4 mph N/A Thunderstorm Mostly Cloudy
9:53 PM 75.9 °F - 64.9 °F 69% 30.09 in 10.0 mi North 13.8 mph 24.2 mph N/A Thunderstorm Overcast
10:53 PM 70.0 °F - 66.9 °F 90% 30.06 in 9.0 mi SE 10.4 mph - 0.04 in Rain , Thunderstorm Light Rain
11:15 PM 69.8 °F - 66.2 °F 88% 30.05 in 10.0 mi SSE 6.9 mph 18.4 mph 0.00 in   Partly Cloudy
11:53 PM 70.0 °F - 66.9 °F 90% 30.01 in 10.0 mi South 10.4 mph - 0.00 in   Clear